Location: Columbia
(38.9520°N, 92.3340°W)
Time: 16:38:22
(UTC-05:00)

SL-08 RB Rocket - Visible Passes

Search period start: 29 April 2016 00:00
Search period end: 09 May 2016 00:00
Orbit: 649 x 685 km, 98.0° (Epoch: 28 April)

Date Brightness Start Highest point End Pass type
(mag) Time Alt. Az. Time Alt. Az. Time Alt. Az.
29 Apr 3.9 22:44:41 73° NNW 22:44:41 73° NNW 22:48:55 10° NNW visible
30 Apr 5.3 21:38:36 19° ENE 21:39:20 20° ENE 21:42:40 10° NNE visible
30 Apr 4.9 23:16:45 38° WNW 23:16:45 38° WNW 23:20:28 10° NNW visible
01 May 4.3 22:10:40 40° ENE 22:10:51 40° ENE 22:15:13 10° N visible
01 May 6.0 23:48:48 18° W 23:48:48 18° W 23:51:20 10° NW visible
02 May 3.7 22:42:44 82° N 22:42:44 82° N 22:47:13 10° NNW visible
03 May 5.3 21:36:40 18° E 21:37:38 19° ENE 21:40:53 10° NNE visible
03 May 4.7 23:14:48 41° W 23:14:48 41° W 23:18:46 10° NNW visible
04 May 4.4 22:08:44 37° E 22:09:09 38° ENE 22:13:28 10° N visible
04 May 5.9 23:46:52 19° W 23:46:52 19° W 23:49:42 10° NW visible
05 May 3.6 22:40:48 84° E 22:40:50 84° ENE 22:45:29 10° N visible
06 May 5.4 21:34:43 17° E 21:35:57 18° ENE 21:39:05 10° NNE visible
06 May 4.6 23:12:52 43° W 23:12:52 43° W 23:17:04 10° NNW visible
07 May 4.4 22:06:47 35° E 22:07:27 37° ENE 22:11:43 10° N visible
07 May 5.8 23:44:56 20° W 23:44:56 20° W 23:48:02 10° NW visible
08 May 3.6 22:38:51 77° ESE 22:39:07 81° ENE 22:43:46 10° N visible
